Jackson, TN

5:45 AM CST on November 13, 2019 (GMT -0600)
McKellar-Sipes Regional

Weather History for KMKL - September, 2019

Change the Weather History Date:

Tuesday, September 24, 2019

  Actual Average Record
Temperature  
Mean Temperature 70 °F 68 °F  
Max Temperature 86 °F 81 °F 95 °F (2010)
Min Temperature 54 °F 56 °F 38 °F (1983)
Degree Days  
Heating Degree Days 0 2  
Month to date heating degree days 0 11  
Since 1 July heating degree days 0 11  
Cooling Degree Days 5 5  
Month to date cooling degree days 325 195  
Year to date cooling degree days 1786 1618  
Growing Degree Days 20 (Base 50)    
Moisture  
Dew Point 55 °F    
Average Humidity 71    
Maximum Humidity 100    
Minimum Humidity 32    
Precipitation  
Precipitation 0.00 in 0.12 in 2.62 in (1977)
Month to date precipitation T 2.59  
Year to date precipitation 46.71 38.46  
Sea Level Pressure  
Sea Level Pressure 30.00 in    
Wind  
Wind Speed 2 mph ()    
Max Wind Speed 12 mph    
Max Gust Speed 15 mph    
Visibility 9.1 miles    
Events Fog    
T = Trace of Precipitation, MM = Missing Value Source: Averaged Metar Reports

Daily Weather History Graph

Daily Weather History Graph

Search for Another Location

Airport or City:

Astronomy

Sep. 24, 2019 Rise Set
Actual Time 6:45 AM CDT 6:49 PM CDT
Civil Twilight 6:19 AM CDT 7:15 PM CDT
Nautical Twilight 5:49 AM CDT 7:44 PM CDT
Astronomical Twilight 5:19 AM CDT 8:14 PM CDT
Moon 1:42 AM CDT (9/24) 4:23 PM CDT (9/24)
Length of Visible Light 12h 55m
Length of Day
12h 04m
Waning Crescent, 23% of the Moon is Illuminated
Sep 24
Waning Crescent
Sep 28
New
Oct 5
First Quarter
Oct 13
Full
Oct 21
Last Quarter

Hourly Weather History & Observations

Time (CDT) Temp. Heat Index Dew Point Humidity Pressure Visibility Wind Dir Wind Speed Gust Speed Precip Events Conditions
12:53 AM 66.9 °F - 60.1 °F 79% 30.02 in 10.0 mi North 3.5 mph - N/A   Clear
1:53 AM 66.9 °F - 57.9 °F 73% 30.02 in 10.0 mi NNE 3.5 mph - N/A   Clear
2:53 AM 63.0 °F - 57.9 °F 84% 30.01 in 10.0 mi Calm Calm - N/A   Clear
3:53 AM 59.0 °F - 57.0 °F 93% 30.01 in 10.0 mi Calm Calm - N/A   Clear
4:53 AM 57.0 °F - 55.9 °F 96% 30.02 in 10.0 mi Calm Calm - N/A   Clear
5:53 AM 57.9 °F - 55.0 °F 90% 30.03 in 10.0 mi Calm Calm - N/A   Clear
6:31 AM 55.0 °F - 55.0 °F 100% 30.04 in 1.8 mi Calm Calm - N/A   Clear
6:41 AM 55.0 °F - 54.0 °F 96% 30.05 in 0.5 mi Calm Calm - N/A Fog Fog
6:48 AM 55.4 °F - 53.6 °F 94% 30.04 in 10.0 mi Calm Calm - N/A   Clear
6:53 AM 54.0 °F - 52.0 °F 93% 30.04 in 10.0 mi Calm Calm - N/A   Clear
6:59 AM 54.0 °F - 52.0 °F 93% 30.05 in 1.2 mi Calm Calm - N/A   Clear
7:07 AM 55.0 °F - 54.0 °F 96% 30.05 in 10.0 mi Calm Calm - N/A   Clear
7:53 AM 62.1 °F - 59.0 °F 90% 30.04 in 10.0 mi Calm Calm - N/A   Clear
8:53 AM 69.1 °F - 59.0 °F 70% 30.04 in 10.0 mi Variable 4.6 mph - N/A   Clear
9:53 AM 73.9 °F - 59.0 °F 59% 30.05 in 10.0 mi East 5.8 mph - N/A   Clear
10:53 AM 77.0 °F - 57.0 °F 50% 30.05 in 10.0 mi SE 6.9 mph - N/A   Clear
11:53 AM 80.1 °F 80.2 °F 55.9 °F 43% 30.04 in 10.0 mi Variable 3.5 mph - N/A   Clear
12:53 PM 82.9 °F 81.9 °F 54.0 °F 37% 30.02 in 10.0 mi North 3.5 mph - N/A   Clear
1:53 PM 84.9 °F - 52.0 °F 32% 29.99 in 10.0 mi East 6.9 mph - N/A   Clear
2:53 PM 84.0 °F - 51.1 °F 32% 29.96 in 10.0 mi Variable 3.5 mph - N/A   Clear
3:53 PM 82.9 °F - 50.0 °F 32% 29.94 in 10.0 mi Variable 4.6 mph - N/A   Clear
4:53 PM 81.0 °F - 52.0 °F 36% 29.94 in 10.0 mi North 8.1 mph - N/A   Partly Cloudy
5:53 PM 81.0 °F 80.4 °F 53.1 °F 38% 29.92 in 10.0 mi NE 5.8 mph - N/A   Clear
6:53 PM 72.0 °F - 55.9 °F 57% 29.91 in 10.0 mi Calm Calm - N/A   Clear
7:53 PM 69.1 °F - 57.0 °F 65% 29.90 in 10.0 mi Calm Calm - N/A   Mostly Cloudy
9:53 PM 62.1 °F - 57.0 °F 84% 29.92 in 10.0 mi SSW 3.5 mph - N/A   Clear
10:53 PM 60.1 °F - 55.9 °F 86% 29.91 in 10.0 mi Calm Calm - N/A   Clear
11:53 PM 59.0 °F - 55.9 °F 90% 29.90 in 10.0 mi Calm Calm - N/A   Clear